Regional Weather Roundup
Issued by NWS

Home | Current Version | Previous Version | Text Only | Print | Product List | Glossary Off
Versions: 1 2 3 4 5 6 7 8 9 10 11 12 13 14 15 16 17 18 19 20 21 22 23 24 25 26 27 28 29 30 31 32 33 34 35 36 37 38 39 40 41 42 43 44 45 46 47 48 49 50

000
ASUS43 KDMX 021007
RWRIA

WEATHER ROUNDUP FOR IOWA
NATIONAL WEATHER SERVICE DES MOINES IA
500 AM CDT SUN AUG 02 2015

NOTE: "FAIR" INDICATES FEW OR NO CLOUDS BELOW 12,000 FEET WITH NO
SIGNIFICANT WEATHER AND/OR OBSTRUCTIONS TO VISIBILITY.

* - THESE STATIONS ARE NOT NWS STATIONS...THUS NOT UNDER NWS
QUALITY CONTROL.  THEY ALSO DO NOT REPORT WEATHER SUCH
AS PRECIPITATION OR FOG.

IAZ001>003-012>014-020>022-031>034-043>046-021100-
   NORTHWEST IOWA

CITY           SKY/WX    TMP DP  RH WIND       PRES   REMARKS
CARROLL *      MOCLDY    70  64  83 SW13G20   29.84R
CHEROKEE *     PTCLDY    68  68 100 S6        29.80F
DENISON *      MOCLDY    70  68  94 VRB5G14   29.85R
LE MARS *      CLEAR     68  66  94 S8        29.79F
ORANGE CITY *  CLEAR     64  63  94 S8        29.79S
SHELDON *      CLEAR     66  64  94 S8        29.77F
SIOUX CITY     CLEAR     68  64  87 SE8       29.80F
SPENCER        CLEAR     71  67  87 SW10      29.78F
STORM LAKE *   PTCLDY    70  70 100 SW10      29.82F
$$

IAZ055>058-069>071-079>083-090>094-021100-
   SOUTHWEST IOWA

CITY           SKY/WX    TMP DP  RH WIND       PRES   REMARKS
ATLANTIC *     PTCLDY    70  64  83 SW10      29.87R
AUDUBON *      LGT RAIN  70  63  78 W7        29.92R
CLARINDA *     CLEAR     68  64  88 S6        29.88F
COUNCIL BLFS * PTCLDY    72  68  88 SW7G14    29.88R
CRESTON *      CLEAR     68  63  83 SW7       29.89F
HARLAN  *      DRIZZLE   68  68 100 SW6G16    29.92R
LAMONI         MOCLDY    70  60  70 CALM      29.89R
RED OAK *      MOCLDY    68  64  88 S5        29.87S
SHENANDOAH *     N/A     68  66  94 CALM      29.86F
$$

IAZ047>049-059>061-072>074-084-021100-
   CENTRAL IOWA

CITY           SKY/WX    TMP DP  RH WIND       PRES   REMARKS
AMES           CLEAR     67  64  90 SW5       29.83F
ANKENY *       PTCLDY    75  63  64 SW10G17   29.83F
CHARITON *     CLEAR     72  61  68 SW12      29.87S
DES MOINES     MOCLDY    74  60  61 SW13      29.83F
GRINNELL*      CLEAR     68  64  88 SW7       29.85S
KNOXVILLE *    CLEAR     72  61  68 SW12      29.84S
MARSHALLTOWN   CLEAR     69  65  86 SW7       29.82F
PELLA *        CLEAR     75  64  69 SW10      29.85F
PERRY *          N/A     72  63  73 SW10G17   29.82F
$$

IAZ004>006-015-016-023>025-035-036-021100-
   NORTH CENTRAL IOWA

CITY           SKY/WX    TMP DP  RH WIND       PRES   REMARKS
ALGONA *       CLEAR     68  66  94 S8        29.79F
CLARION *      CLEAR     68  64  88 SW7       29.80F
ESTHERVILLE    CLEAR     69  66  90 SW9       29.77F
FORT DODGE *   CLEAR     68  63  83 SW8       29.82S
MASON CITY     PTCLDY    72  67  84 SW20      29.80F
FOREST CITY *  CLEAR     68  68 100 SW10      29.79F
IOWA FALLS *     N/A     68  64  88 SW9       29.82F
$$

IAZ007>011-017>019-026>030-037>042-050>054-066-021100-
   NORTHEAST IOWA

CITY           SKY/WX    TMP DP  RH WIND       PRES   REMARKS
CEDAR RAPIDS   CLEAR     67  67 100 S6        29.83F
CHARLES CITY * PTCLDY    70  70 100 SW9       29.79F
CLINTON *      CLEAR     66  66 100 SW6       29.87F
DECORAH *      PTCLDY    72  70  94 SW9       29.77F
DUBUQUE        CLEAR     69  68  96 SW12      29.82F
MONTICELLO *   CLEAR     68  66  94 CALM      29.83S
OELWEIN *      CLEAR     70  68  94 SW8       29.82F
WATERLOO       CLEAR     72  67  84 SW10      29.79F
$$

IAZ064-065-067-068-078-021100-
   EAST CENTRAL IOWA

CITY           SKY/WX    TMP DP  RH WIND       PRES   REMARKS
DAVENPORT      CLEAR     70  68  93 SW6       29.86F
IOWA CITY      CLEAR     67  66  97 S5        29.85F
MT. PLEASANT * CLEAR     68  64  88 S7        29.89S
MUSCATINE *    CLEAR     68  66  94 S6        29.86F
QUAD CITIES    CLEAR     71  67  87 SW7       29.86F
$$

IAZ062-063-075>077-085>089-095>099-021100-
   SOUTHEAST IOWA

CITY           SKY/WX    TMP DP  RH WIND       PRES   REMARKS
BURLINGTON     CLEAR     68  65  90 S8        29.89F
FAIRFIELD *    CLEAR     66  63  88 S9        29.87F
FORT MADISON * CLEAR     66  64  94 SW9       29.90F
KEOKUK *       PTCLDY    66  64  94 SW6       29.89F
OSKALOOSA *      N/A     66  64  94 S5        29.86S
CENTERVILLE *  CLEAR     64  61  88 S5        29.91S
OTTUMWA        CLEAR     68  66  93 S12       29.84F
WASHINGTON *   CLEAR     68  66  94 S8G15     29.88S
$$

ABBREVIATIONS USED IN REMARKS
   TC - TEMPERATURES IN CELSIUS
  WCI - WIND CHILL INDEX
   HX - HEAT INDEX
  VSB - VISIBILITY
$$



USA.gov is the U.S. government's official web portal to all federal, state and local government web resources and services.